| time (UTC) | temp F | wind direction | speed knots | gust knots | rain 1hr in | rain 24hr in | rain mn in | humidity % | barometer mb |
| 20260508034629 | 46 | 271 | 1.7 | 2.6 | 0.00 | 0.13 | 0.00 | 93 | 1011.7 |
| 20260508033148 | 47 | 285 | 0.0 | 1.7 | 0.00 | 0.13 | 0.00 | 93 | 1011.7 |
| 20260508031552 | 47 | 236 | 0.0 | 1.7 | 0.00 | 0.13 | 0.00 | 94 | 1011.9 |
| 20260508030028 | 47 | 296 | 0.9 | 2.6 | 0.00 | 0.13 | 0.00 | 94 | 1011.8 |
| 20260508024548 | 47 | 273 | 0.9 | 1.7 | 0.00 | 0.13 | 0.00 | 93 | 1012.0 |
| 20260508023117 | 47 | 276 | 0.0 | 2.6 | 0.00 | 0.13 | 0.00 | 93 | 1012.0 |
| 20260508021631 | 47 | 280 | 0.9 | 1.7 | 0.00 | 0.13 | 0.00 | 93 | 1012.0 |
| 20260508014511 | 48 | 268 | 0.0 | 2.6 | 0.00 | 0.13 | 0.00 | 93 | 1012.1 |
| 20260508013027 | 49 | 285 | 0.0 | 1.7 | 0.00 | 0.13 | 0.00 | 92 | 1012.1 |
| 20260508011545 | 50 | 285 | 0.0 | 1.7 | 0.00 | 0.13 | 0.00 | 93 | 1012.2 |
| 20260508010028 | 50 | 285 | 0.9 | 2.6 | 0.00 | 0.13 | 0.00 | 93 | 1012.4 |
| 20260508004552 | 51 | 234 | 0.0 | 2.6 | 0.00 | 0.13 | 0.00 | 93 | 1012.6 |
| 20260508003108 | 51 | 260 | 0.0 | 1.7 | 0.00 | 0.13 | 0.00 | 93 | 1012.8 |
| 20260508001634 | 52 | 260 | 0.0 | 1.7 | 0.00 | 0.13 | 0.00 | 93 | 1012.9 |
| 20260508000147 | 51 | 260 | 0.9 | 1.7 | 0.00 | 0.13 | 0.00 | 93 | 1013.0 |
| 20260507234606 | 51 | 260 | 0.0 | 1.7 | 0.00 | 0.13 | 0.00 | 93 | 1013.0 |
| 20260507233032 | 51 | 260 | 0.9 | 1.7 | 0.00 | 0.13 | 0.00 | 92 | 1013.2 |
| 20260507230025 | 52 | 274 | 1.7 | 2.6 | 0.00 | 0.13 | 0.00 | 92 | 1013.2 |
| 20260507224604 | 52 | 259 | 1.7 | 2.6 | 0.00 | 0.13 | 0.00 | 92 | 1013.2 |
| 20260507223039 | 52 | 259 | 0.0 | 1.7 | 0.00 | 0.13 | 0.00 | 92 | 1013.3 |
| 20260507221550 | 52 | 259 | 0.9 | 1.7 | 0.00 | 0.13 | 0.00 | 92 | 1013.1 |
| 20260507220004 | 52 | 259 | 0.0 | 1.7 | 0.00 | 0.13 | 0.13 | 91 | 1012.9 |
| 20260507214557 | 52 | 259 | 0.0 | 1.7 | 0.00 | 0.13 | 0.13 | 91 | 1012.9 |
| 20260507213045 | 53 | 259 | 0.0 | 1.7 | 0.00 | 0.13 | 0.13 | 90 | 1012.9 |
| 20260507211606 | 53 | 252 | 1.7 | 3.5 | 0.00 | 0.13 | 0.13 | 91 | 1012.9 |
| 20260507210014 | 53 | 250 | 0.9 | 3.5 | 0.00 | 0.13 | 0.13 | 91 | 1012.8 |
| 20260507204519 | 54 | 277 | 0.9 | 1.7 | 0.00 | 0.13 | 0.13 | 91 | 1012.8 |
| 20260507203052 | 54 | 332 | 0.0 | 1.7 | 0.00 | 0.13 | 0.13 | 90 | 1012.8 |
| 20260507201538 | 55 | 65 | 0.0 | 1.7 | 0.00 | 0.13 | 0.13 | 90 | 1012.6 |
| 20260507200031 | 55 | 65 | 0.0 | 0.9 | 0.00 | 0.13 | 0.13 | 90 | 1012.5 |
| 20260507194551 | 55 | 65 | 0.0 | 1.7 | 0.00 | 0.13 | 0.13 | 89 | 1012.4 |
| 20260507193101 | 55 | 65 | 0.0 | 1.7 | 0.00 | 0.13 | 0.13 | 89 | 1012.1 |
| 20260507191619 | 56 | 65 | 0.0 | 1.7 | 0.00 | 0.13 | 0.13 | 88 | 1012.0 |
| 20260507190059 | 56 | 65 | 0.0 | 1.7 | 0.00 | 0.13 | 0.13 | 87 | 1012.0 |
| 20260507184621 | 57 | 65 | 0.0 | 1.7 | 0.00 | 0.13 | 0.13 | 86 | 1012.0 |
| 20260507183155 | 57 | 65 | 0.0 | 3.5 | 0.00 | 0.13 | 0.13 | 86 | 1011.8 |
| 20260507181510 | 58 | 46 | 0.9 | 2.6 | 0.00 | 0.13 | 0.13 | 85 | 1011.8 |
| 20260507180012 | 58 | 62 | 1.7 | 3.5 | 0.00 | 0.13 | 0.13 | 83 | 1011.7 |
| 20260507174539 | 58 | 63 | 1.7 | 5.2 | 0.00 | 0.13 | 0.13 | 81 | 1011.6 |
| 20260507173056 | 59 | 38 | 0.9 | 2.6 | 0.00 | 0.13 | 0.13 | 81 | 1011.5 |
| 20260507171627 | 59 | 81 | 2.6 | 5.2 | 0.00 | 0.13 | 0.13 | 79 | 1011.5 |
| 20260507170111 | 59 | 55 | 0.9 | 3.5 | 0.00 | 0.13 | 0.13 | 80 | 1011.4 |
| 20260507164648 | 59 | 65 | 1.7 | 4.3 | 0.00 | 0.13 | 0.13 | 79 | 1011.4 |
| 20260507163201 | 59 | 79 | 1.7 | 3.5 | 0.00 | 0.13 | 0.13 | 77 | 1011.4 |
| 20260507160008 | 59 | 62 | 3.5 | 7.8 | 0.00 | 0.13 | 0.13 | 77 | 1011.2 |
| 20260507154519 | 59 | 96 | 2.6 | 5.2 | 0.00 | 0.13 | 0.13 | 78 | 1011.0 |
| 20260507153025 | 59 | 48 | 2.6 | 5.2 | 0.00 | 0.13 | 0.13 | 77 | 1011.1 |
| 20260507151505 | 59 | 75 | 5.2 | 11.3 | 0.00 | 0.13 | 0.13 | 77 | 1011.0 |
| 20260507144515 | 60 | 116 | 7.8 | 12.2 | 0.00 | 0.13 | 0.13 | 74 | 1011.1 |
| 20260507143042 | 60 | 47 | 6.1 | 11.3 | 0.00 | 0.13 | 0.13 | 75 | 1011.3 |
| 20260507141612 | 61 | 112 | 7.0 | 11.3 | 0.00 | 0.13 | 0.13 | 72 | 1011.4 |
| 20260507140033 | 62 | 98 | 6.1 | 13.0 | 0.00 | 0.13 | 0.13 | 73 | 1011.4 |
| 20260507134514 | 61 | 80 | 5.2 | 11.3 | 0.00 | 0.13 | 0.13 | 75 | 1011.5 |
| 20260507133035 | 62 | 99 | 6.1 | 14.8 | 0.00 | 0.13 | 0.13 | 74 | 1011.5 |
| 20260507131614 | 61 | 56 | 6.1 | 10.4 | 0.00 | 0.13 | 0.13 | 70 | 1011.8 |
| 20260507130018 | 61 | 65 | 6.1 | 12.2 | 0.00 | 0.13 | 0.13 | 73 | 1012.1 |
| 20260507124537 | 61 | 79 | 5.2 | 13.0 | 0.00 | 0.13 | 0.13 | 79 | 1012.1 |
| 20260507123130 | 60 | 44 | 7.0 | 11.3 | 0.04 | 0.13 | 0.13 | 81 | 1012.2 |
| 20260507121626 | 59 | 12 | 5.2 | 10.4 | 0.13 | 0.13 | 0.13 | 85 | 1012.3 |
| 20260507120121 | 58 | 50 | 4.3 | 9.6 | 0.13 | 0.13 | 0.13 | 87 | 1012.5 |
| 20260507114637 | 57 | 37 | 4.3 | 9.6 | 0.13 | 0.13 | 0.13 | 86 | 1012.7 |
| 20260507113136 | 57 | 21 | 4.3 | 12.2 | 0.08 | 0.08 | 0.08 | 85 | 1012.8 |
| 20260507111631 | 60 | 130 | 6.1 | 11.3 | 0.00 | 0.00 | 0.00 | 77 | 1012.8 |
| 20260507110117 | 60 | 15 | 3.5 | 9.6 | 0.00 | 0.00 | 0.00 | 73 | 1012.8 |
| 20260507104644 | 61 | 68 | 3.5 | 12.2 | 0.00 | 0.00 | 0.00 | 71 | 1012.9 |
| 20260507103155 | 61 | 23 | 3.5 | 10.4 | 0.00 | 0.00 | 0.00 | 70 | 1012.9 |
| 20260507101507 | 60 | 92 | 1.7 | 8.7 | 0.00 | 0.00 | 0.00 | 74 | 1013.1 |
| 20260507100004 | 59 | 58 | 4.3 | 9.6 | 0.00 | 0.00 | 0.00 | 74 | 1013.3 |
| 20260507094513 | 59 | 100 | 3.5 | 9.6 | 0.00 | 0.00 | 0.00 | 74 | 1013.2 |
| 20260507093035 | 59 | 92 | 1.7 | 6.1 | 0.00 | 0.00 | 0.00 | 75 | 1013.1 |
| 20260507091602 | 58 | 42 | 5.2 | 8.7 | 0.00 | 0.00 | 0.00 | 76 | 1013.1 |
| 20260507090042 | 58 | 37 | 3.5 | 8.7 | 0.00 | 0.00 | 0.00 | 75 | 1013.1 |
| 20260507084602 | 58 | 43 | 1.7 | 7.0 | 0.00 | 0.00 | 0.00 | 79 | 1013.1 |
| 20260507083046 | 57 | 46 | 2.6 | 5.2 | 0.00 | 0.00 | 0.00 | 79 | 1013.0 |
| 20260507081607 | 57 | 59 | 1.7 | 7.0 | 0.00 | 0.00 | 0.00 | 80 | 1013.1 |
| 20260507080147 | 56 | 35 | 3.5 | 8.7 | 0.00 | 0.00 | 0.00 | 83 | 1013.0 |
| 20260507074650 | 57 | 76 | 6.1 | 10.4 | 0.00 | 0.00 | 0.00 | 83 | 1012.9 |
| 20260507073149 | 57 | 23 | 0.9 | 11.3 | 0.00 | 0.00 | 0.00 | 83 | 1012.7 |
| 20260507070146 | 54 | 289 | 2.6 | 9.6 | 0.00 | 0.00 | 0.00 | 87 | 1013.0 |
| 20260507064649 | 54 | 69 | 0.9 | 3.5 | 0.00 | 0.00 | 0.00 | 88 | 1012.9 |
| 20260507063002 | 53 | 79 | 0.0 | 7.0 | 0.00 | 0.00 | 0.00 | 91 | 1012.9 |
| 20260507061504 | 48 | 42 | 0.0 | 1.7 | 0.00 | 0.00 | 0.00 | 90 | 1012.9 |
| 20260507060155 | 48 | 272 | 0.0 | 1.7 | 0.00 | 0.00 | 0.00 | 89 | 1012.7 |
| 20260507054506 | 47 | 293 | 0.0 | 1.7 | 0.00 | 0.00 | 0.00 | 91 | 1012.6 |
| 20260507053047 | 46 | 290 | 0.0 | 1.7 | 0.00 | 0.00 | 0.00 | 89 | 1012.4 |
| 20260507051608 | 45 | 277 | 0.0 | 2.6 | 0.00 | 0.00 | 0.00 | 89 | 1012.2 |
| 20260507050112 | 45 | 276 | 0.0 | 2.6 | 0.00 | 0.00 | 0.00 | 89 | 1012.2 |
| 20260507044618 | 45 | 266 | 1.7 | 3.5 | 0.00 | 0.00 | 0.00 | 88 | 1012.0 |
| 20260507043156 | 45 | 263 | 0.0 | 3.5 | 0.00 | 0.00 | 0.00 | 88 | 1012.0 |
| 20260507041515 | 45 | 274 | 1.7 | 3.5 | 0.00 | 0.00 | 0.00 | 88 | 1012.1 |
| 20260507040023 | 45 | 262 | 1.7 | 3.5 | 0.00 | 0.00 | 0.00 | 88 | 1012.2 |